[[{"header":{"parameterUnit":"m.s-1","parameterCategory":1,"la1":30.2991,"la2":30.254,"lo1":-89.0895,"lo2":-89.0444,"dy":0.0017,"dx":0.0017,"nx":28,"ny":28,"refTime":"2025-01-17T03:00:00:Z","depth":0,"parameterNumber":2,"parameterNumberName":"U-component_of_WINDS"},"data":[0,0,0,0,0,0,0,0,0,0,0,0,0,0,0,0,0,0,0,0,0,0,0,0,0,0,0,0,0,0,0,0,0,0,0,0,0,0,0,0,0,0,0,0,0,0,0,0,0,0,0,0,0,0,0,0,0,0,0.7452,0.7452,0,0.7483,0.7483,0.7484,0.7484,0.7484,0.7484,0.7483,0.7517,0.7519,0.752,0,0,0,0,0,0,0,0,0,0,0,0,0,0.7394,0.7395,0.7452,0.7452,0.7452,0.7483,0.7483,0.7484,0.7484,0.7484,0.7483,0.7483,0.7517,0.7519,0.752,0,0,0,0,0,0,0,0,0,0,0,0,0,0.7422,0.7396,0.7452,0.7456,0.7457,0.7483,0.7483,0.7484,0.7485,0.7484,0.7483,0.7483,0.7517,0.7518,0.752,0.7544,0,0,0.7526,0.7527,0,0,0,0,0,0,0,0,0.742,0.7424,0.7455,0.7456,0.7457,0.7479,0.7476,0.7504,0.7485,0.7474,0.7483,0.7483,0.7505,0.7508,0.7515,0.7546,0.7547,0.7526,0.7527,0.7528,0.7529,0,0,0,0,0,0,0,0.7418,0.7423,0.7464,0.7456,0.7457,0.7458,0.7461,0.7481,0.7493,0.7475,0.7475,0.7479,0.7506,0.7514,0.7516,0.7548,0.7526,0.7528,0.7529,0.753,0.76,0.7601,0,0,0,0,0,0,0.7415,0.7421,0.7463,0.7465,0.7437,0.7459,0.7463,0.7473,0.7493,0.7495,0.7479,0.7479,0.7511,0.7514,0.7517,0.7547,0.7528,0.753,0.7531,0.7599,0.76,0.7601,0,0,0,0,0,0,0.7414,0.7419,0.7462,0.7443,0.7449,0.7461,0.7472,0.7474,0.7481,0.7496,0.7498,0.7485,0.751,0.7515,0.7537,0.7549,0.7531,0.7533,0.7598,0.7599,0.76,0.7607,0,0,0,0,0,0,0.7412,0.7418,0.7427,0.7443,0.745,0.7481,0.7472,0.7475,0.7484,0.7484,0.7502,0.7504,0.751,0.7535,0.7539,0.7551,0.7534,0.7597,0.7599,0.76,0.7606,0.7608,0.761,0,0,0,0,0,0.741,0.7428,0.7428,0.7433,0.7461,0.7481,0.7485,0.7491,0.7485,0.7495,0.7504,0.7504,0.7546,0.7537,0.7542,0.7555,0.7597,0.7598,0.76,0.7605,0.7608,0.761,0,0,0,0,0,0,0.7414,0.743,0.743,0.7453,0.7466,0.7481,0.7493,0.7494,0.7509,0.7508,0.7515,0.7519,0.7542,0.755,0.754,0.7579,0.7571,0.7574,0.7573,0.7576,0.7578,0.7576,0.7536,0,0,0,0,0,0.7417,0.7432,0.7446,0.7465,0.7471,0.7481,0.7491,0.7494,0.7508,0.7513,0.7524,0.7538,0.7554,0.7565,0.7581,0.7607,0.7611,0.7618,0.762,0.7622,0.7624,0.7639,0.7643,0.7606,0.7606,0.7606,0,0,0.7425,0.7435,0.7444,0.7466,0.7476,0.7492,0.7486,0.7503,0.7515,0.7516,0.7538,0.7547,0.7563,0.7587,0.7598,0.7595,0.7635,0.7624,0.7625,0.7627,0.7641,0.7645,0.7648,0.7607,0.7607,0.7607,0,0,0.7447,0.7456,0.7473,0.7483,0.7499,0.7505,0.7509,0.7525,0.753,0.7552,0.7553,0.7568,0.7596,0.7608,0.7618,0.7644,0.7644,0.7649,0.766,0.7675,0.7678,0.768,0.7691,0.7694,0.7651,0.7651,0.7651,0,0.7454,0.7478,0.7482,0.75,0.751,0.751,0.7528,0.7538,0.7558,0.7565,0.7561,0.7596,0.7607,0.7635,0.7641,0.7648,0.7654,0.7647,0.7677,0.7679,0.7682,0.7692,0.7696,0.7651,0.7651,0.7651,0.7651,0,0.7487,0.7503,0.7516,0.7534,0.7546,0.7563,0.7571,0.7582,0.7584,0.7591,0.7615,0.7627,0.7646,0.7653,0.7655,0.7681,0.7678,0.7675,0.7667,0.7686,0.7696,0.7699,0.7652,0.7652,0.7652,0.7652,0,0,0.7513,0.7534,0.7538,0.7547,0.7564,0.7577,0.7595,0.7612,0.7622,0.7636,0.7652,0.7675,0.7672,0.7683,0.7687,0.77,0.7721,0.7695,0.7696,0.7701,0.7751,0.7755,0.7759,0.7721,0.7722,0.7722,0.775,0,0.7538,0.7569,0.7574,0.7602,0.7618,0.7618,0.7634,0.7646,0.7653,0.7668,0.7676,0.7693,0.7687,0.7694,0.7706,0.7716,0.7731,0.7714,0.7737,0.7738,0.7734,0.7764,0.7767,0.7793,0.7754,0.7755,0.7755,0,0.7572,0.7585,0.7615,0.7629,0.7636,0.765,0.7667,0.7681,0.7695,0.7699,0.7711,0.7714,0.7733,0.7723,0.7751,0.7739,0.7748,0.7754,0.7756,0.7759,0.7749,0.7769,0.7801,0.7806,0.7761,0.776,0.776,0,0.7589,0.7615,0.7636,0.7644,0.7661,0.7671,0.7679,0.7692,0.7703,0.7718,0.7725,0.7742,0.7752,0.7765,0.7772,0.7764,0.78,0.779,0.7805,0.7805,0.7814,0.7813,0.7849,0.7817,0.7817,0.7817,0.7817,0,0.7618,0.7636,0.7645,0.7658,0.7679,0.7684,0.7704,0.7712,0.7724,0.7739,0.774,0.7755,0.7762,0.7778,0.7784,0.7807,0.7811,0.7816,0.7817,0.7816,0.7816,0.7824,0.7823,0.7818,0.7818,0.7818,0.7818,0,0.7642,0.7648,0.7671,0.7685,0.7689,0.7704,0.7717,0.773,0.7736,0.7756,0.7761,0.7771,0.779,0.7798,0.7821,0.7825,0.7851,0.7851,0.7846,0.7847,0.7862,0.7861,0.7905,0.7912,0.7875,0.7875,0.7875,0,0.766,0.7674,0.7689,0.7699,0.7707,0.7723,0.7734,0.7739,0.775,0.7767,0.7779,0.7797,0.7812,0.7842,0.7853,0.7871,0.7872,0.7886,0.7874,0.7873,0.7874,0.7873,0.7875,0.7888,0.7889,0.7889,0.7889,0,0.7692,0.7694,0.7709,0.7725,0.7738,0.7751,0.7763,0.7772,0.7779,0.7792,0.781,0.7822,0.7845,0.7864,0.7883,0.7892,0.7893,0.7893,0.7897,0.7897,0.7895,0.7898,0.7854,0.7892,0.7892,0.7892,0.7891,0.7891,0.7715,0.7728,0.774,0.7757,0.7767,0.7779,0.7792,0.78,0.7815,0.7834,0.7836,0.7857,0.7871,0.7896,0.7905,0.7922,0.7918,0.7925,0.7927,0.7928,0.793,0.7891,0.7925,0.7925,0.7925,0.7925,0.7925,0,0.7748,0.7756,0.7771,0.7789,0.7802,0.78,0.7814,0.7826,0.7843,0.7856,0.7871,0.7892,0.7911,0.7922,0.7941,0.7952,0.7953,0.7957,0.7957,0.7959,0.7931,0.7926,0.7956,0.7956,0.7956,0.7956,0.7956,0.7956,0.7768,0.7789,0.7793,0.782,0.7828,0.7847,0.7856,0.7867,0.7877,0.7901,0.7916,0.7923,0.7935,0.7955,0.7972,0.7974,0.7982,0.7986,0.7989,0.7964,0.7961,0.7958,0.7953,0.7988,0.7988,0.8016,0.8016,0.8016]},{"header":{"parameterUnit":"m.s-1","parameterCategory":1,"la1":30.2991,"la2":30.254,"lo1":-89.0895,"lo2":-89.0444,"dy":0.0017,"dx":0.0017,"nx":28,"ny":28,"refTime":"2025-01-17T03:00:00:Z","depth":0,"parameterNumber":3,"parameterNumberName":"V-component_of_WINDS"},"data":[0,0,0,0,0,0,0,0,0,0,0,0,0,0,0,0,0,0,0,0,0,0,0,0,0,0,0,0,0,0,0,0,0,0,0,0,0,0,0,0,0,0,0,0,0,0,0,0,0,0,0,0,0,0,0,0,0,0,-0.9306,-0.9306,0,-0.9283,-0.9282,-0.9282,-0.9277,-0.9278,-0.9278,-0.9278,-0.9253,-0.9252,-0.9251,0,0,0,0,0,0,0,0,0,0,0,0,0,-0.9346,-0.9345,-0.9306,-0.9306,-0.9306,-0.9283,-0.9282,-0.9282,-0.9277,-0.9278,-0.9278,-0.9278,-0.9253,-0.9252,-0.9251,0,0,0,0,0,0,0,0,0,0,0,0,0,-0.9326,-0.9345,-0.9306,-0.9301,-0.93,-0.9283,-0.9282,-0.9282,-0.9277,-0.9278,-0.9278,-0.9278,-0.9253,-0.9252,-0.9251,-0.9237,0,0,-0.9247,-0.9246,0,0,0,0,0,0,0,0,-0.9327,-0.9325,-0.9302,-0.9301,-0.93,-0.9283,-0.9287,-0.9267,-0.9277,-0.9286,-0.9278,-0.9278,-0.9262,-0.926,-0.9255,-0.9236,-0.9235,-0.9247,-0.9246,-0.9245,-0.9245,0,0,0,0,0,0,0,-0.9329,-0.9326,-0.9297,-0.9301,-0.93,-0.9299,-0.9296,-0.9283,-0.9273,-0.9285,-0.9285,-0.9282,-0.9262,-0.9257,-0.9255,-0.9235,-0.9247,-0.9246,-0.9245,-0.9244,-0.9203,-0.9203,0,0,0,0,0,0,-0.9331,-0.9327,-0.9298,-0.9296,-0.9315,-0.9298,-0.9295,-0.9288,-0.9273,-0.9271,-0.9282,-0.9282,-0.9259,-0.9256,-0.9254,-0.9237,-0.9245,-0.9244,-0.9243,-0.9203,-0.9203,-0.9203,0,0,0,0,0,0,-0.9332,-0.9329,-0.9299,-0.9312,-0.9308,-0.9297,-0.9289,-0.9288,-0.9282,-0.9271,-0.9269,-0.9278,-0.9259,-0.9256,-0.9241,-0.9236,-0.9244,-0.9242,-0.9204,-0.9203,-0.9203,-0.9204,0,0,0,0,0,0,-0.9333,-0.9329,-0.9324,-0.9311,-0.9307,-0.9287,-0.9289,-0.9287,-0.928,-0.928,-0.9267,-0.9265,-0.9259,-0.9243,-0.924,-0.9235,-0.9241,-0.9204,-0.9204,-0.9203,-0.9204,-0.9203,-0.9203,0,0,0,0,0,-0.9335,-0.9325,-0.9324,-0.932,-0.9301,-0.9287,-0.9284,-0.9278,-0.928,-0.9275,-0.9267,-0.9265,-0.9237,-0.9242,-0.9238,-0.9232,-0.9205,-0.9204,-0.9203,-0.9204,-0.9203,-0.9203,0,0,0,0,0,0,-0.9337,-0.9323,-0.9322,-0.9308,-0.9299,-0.9286,-0.9279,-0.9277,-0.9267,-0.9267,-0.9259,-0.9256,-0.9243,-0.9236,-0.9241,-0.9219,-0.9221,-0.922,-0.9223,-0.9222,-0.9222,-0.9223,-0.924,0,0,0,0,0,-0.9336,-0.9326,-0.9314,-0.9303,-0.9299,-0.929,-0.9283,-0.928,-0.9269,-0.9265,-0.9257,-0.9247,-0.9236,-0.9229,-0.9218,-0.9203,-0.92,-0.9197,-0.9197,-0.9196,-0.9195,-0.9186,-0.9185,-0.92,-0.92,-0.92,0,0,-0.9333,-0.9324,-0.9319,-0.9303,-0.9296,-0.9285,-0.9286,-0.9276,-0.9268,-0.9264,-0.925,-0.9243,-0.9232,-0.9217,-0.921,-0.9211,-0.919,-0.9195,-0.9195,-0.9194,-0.9185,-0.9184,-0.9183,-0.92,-0.92,-0.92,0,0,-0.9323,-0.9316,-0.9305,-0.9298,-0.9286,-0.9281,-0.9278,-0.9266,-0.9262,-0.9248,-0.9245,-0.9235,-0.9217,-0.9209,-0.9202,-0.9189,-0.9187,-0.9186,-0.9182,-0.9174,-0.9173,-0.9172,-0.9167,-0.9166,-0.9185,-0.9185,-0.9185,0,-0.9321,-0.9306,-0.93,-0.929,-0.9283,-0.9279,-0.9269,-0.9261,-0.9247,-0.9242,-0.9244,-0.922,-0.9212,-0.9196,-0.9193,-0.9188,-0.9185,-0.9187,-0.9174,-0.9172,-0.9171,-0.9167,-0.9165,-0.9185,-0.9185,-0.9185,-0.9185,0,-0.9304,-0.9293,-0.9286,-0.9273,-0.9266,-0.9255,-0.9248,-0.9241,-0.9238,-0.9232,-0.9218,-0.9208,-0.9195,-0.9191,-0.9188,-0.9174,-0.9175,-0.9175,-0.9178,-0.917,-0.9166,-0.9164,-0.9185,-0.9185,-0.9185,-0.9185,0,0,-0.9294,-0.9278,-0.9275,-0.9269,-0.9257,-0.9249,-0.9238,-0.9226,-0.922,-0.9211,-0.9201,-0.9186,-0.9186,-0.9178,-0.9174,-0.9167,-0.9158,-0.9168,-0.9168,-0.9166,-0.9142,-0.9142,-0.914,-0.9156,-0.9156,-0.9156,-0.9143,0,-0.9282,-0.9263,-0.9258,-0.9242,-0.9232,-0.9229,-0.9219,-0.9211,-0.9205,-0.9196,-0.9189,-0.9178,-0.9179,-0.9175,-0.9168,-0.916,-0.9153,-0.9161,-0.9147,-0.9147,-0.915,-0.9138,-0.9138,-0.9127,-0.9142,-0.9141,-0.9141,0,-0.9266,-0.9256,-0.9239,-0.9228,-0.9224,-0.9216,-0.9205,-0.9196,-0.9186,-0.9182,-0.9174,-0.9171,-0.9159,-0.9163,-0.9146,-0.9152,-0.9146,-0.9142,-0.9141,-0.9139,-0.9143,-0.9136,-0.9123,-0.9121,-0.9138,-0.9139,-0.9139,0,-0.926,-0.9243,-0.9231,-0.9226,-0.9213,-0.9207,-0.9201,-0.9191,-0.9185,-0.9175,-0.917,-0.9159,-0.9153,-0.9144,-0.9138,-0.9141,-0.9122,-0.9125,-0.9119,-0.9119,-0.9114,-0.9115,-0.91,-0.9111,-0.9111,-0.9111,-0.9111,0,-0.9247,-0.9237,-0.9228,-0.922,-0.9209,-0.9203,-0.9192,-0.9186,-0.9177,-0.9168,-0.9164,-0.9156,-0.9148,-0.9139,-0.9133,-0.9121,-0.9118,-0.9114,-0.9113,-0.9115,-0.9115,-0.911,-0.9111,-0.9111,-0.9111,-0.9111,-0.9111,0,-0.9239,-0.9232,-0.9219,-0.9208,-0.9205,-0.9197,-0.9187,-0.9179,-0.9174,-0.9163,-0.916,-0.9151,-0.9139,-0.9132,-0.9117,-0.9114,-0.91,-0.9099,-0.9104,-0.9103,-0.9097,-0.9097,-0.9079,-0.9076,-0.9089,-0.9089,-0.9089,0,-0.9231,-0.9223,-0.9211,-0.9205,-0.92,-0.919,-0.9183,-0.9177,-0.917,-0.9158,-0.9152,-0.9141,-0.9131,-0.9113,-0.9105,-0.9094,-0.9093,-0.9087,-0.9091,-0.9093,-0.9092,-0.9093,-0.9092,-0.9086,-0.9086,-0.9086,-0.9086,0,-0.9217,-0.9215,-0.9206,-0.9195,-0.9188,-0.9179,-0.917,-0.9166,-0.9158,-0.915,-0.9139,-0.9132,-0.9117,-0.9106,-0.9094,-0.9088,-0.9085,-0.9085,-0.9082,-0.9084,-0.9087,-0.9085,-0.9102,-0.9085,-0.9085,-0.9085,-0.9085,-0.9085,-0.9209,-0.9202,-0.9193,-0.9182,-0.9176,-0.9168,-0.916,-0.9154,-0.9145,-0.9132,-0.9129,-0.9117,-0.9108,-0.9092,-0.9085,-0.9076,-0.9076,-0.9073,-0.9073,-0.9072,-0.9072,-0.9089,-0.9074,-0.9074,-0.9074,-0.9074,-0.9074,0,-0.9195,-0.9189,-0.918,-0.9169,-0.9161,-0.916,-0.915,-0.9144,-0.9133,-0.9125,-0.9116,-0.9103,-0.9092,-0.9083,-0.9072,-0.9066,-0.9064,-0.9063,-0.9063,-0.9062,-0.9072,-0.9075,-0.9064,-0.9064,-0.9064,-0.9064,-0.9064,-0.9064,-0.9187,-0.9175,-0.9172,-0.9156,-0.915,-0.9139,-0.9134,-0.9127,-0.912,-0.9105,-0.9097,-0.9091,-0.9083,-0.9071,-0.9061,-0.9058,-0.9054,-0.9053,-0.905,-0.906,-0.9061,-0.9062,-0.9065,-0.9052,-0.9052,-0.9041,-0.9041,-0.9041]}]]